Time,TemperatureF,DewpointF,PressureIn,WindDirection,WindDirectionDegrees,WindSpeedMPH,WindSpeedGustMPH,Humidity,HourlyPrecipIn,Conditions,Clouds,dailyrainin,SoftwareType,DateUTC
2013-02-06 00:03:00,50.1,39.6,29.91,NE,47,2.0,4.0,67,0.00,,---,0.00,VWS V14.01,2013-02-06 07:03:00,
2013-02-06 00:08:00,49.9,39.4,29.91,NE,44,1.0,4.0,67,0.00,,---,0.00,VWS V14.01,2013-02-06 07:08:00,
2013-02-06 00:13:00,49.6,39.5,29.91,NE,47,0.0,4.0,68,0.00,,---,0.00,VWS V14.01,2013-02-06 07:13:00,
2013-02-06 00:18:00,49.3,39.2,29.91,NE,47,0.0,4.0,68,0.00,,---,0.00,VWS V14.01,2013-02-06 07:18:00,
2013-02-06 00:23:00,49.2,39.5,29.91,NE,47,0.0,4.0,69,0.00,,---,0.00,VWS V14.01,2013-02-06 07:23:00,
2013-02-06 00:28:00,49.0,39.3,29.91,NE,47,0.0,4.0,69,0.00,,---,0.00,VWS V14.01,2013-02-06 07:28:00,
2013-02-06 00:33:00,49.0,39.3,29.91,NE,47,0.0,0.0,69,0.00,,---,0.00,VWS V14.01,2013-02-06 07:33:00,
2013-02-06 00:38:00,48.9,39.2,29.91,NE,47,0.0,0.0,69,0.00,,---,0.00,VWS V14.01,2013-02-06 07:38:00,
2013-02-06 00:43:00,49.0,39.3,29.91,NE,47,0.0,0.0,69,0.00,,---,0.00,VWS V14.01,2013-02-06 07:43:00,
2013-02-06 00:49:00,48.9,39.2,29.91,NE,47,0.0,0.0,69,0.00,,---,0.00,VWS V14.01,2013-02-06 07:49:00,
2013-02-06 00:54:00,48.5,39.2,29.91,NE,44,0.0,0.0,70,0.00,,---,0.00,VWS V14.01,2013-02-06 07:54:00,
2013-02-06 00:59:00,47.9,39.0,29.91,NE,46,0.0,0.0,71,0.00,,---,0.00,VWS V14.01,2013-02-06 07:59:00,
2013-02-06 01:04:00,47.4,38.8,29.91,NE,44,0.0,0.0,72,0.00,,---,0.00,VWS V14.01,2013-02-06 08:04:00,
2013-02-06 01:09:00,46.9,38.7,29.90,NE,39,0.0,0.0,73,0.00,,---,0.00,VWS V14.01,2013-02-06 08:09:00,
2013-02-06 01:14:00,46.6,38.8,29.90,NE,37,2.0,3.0,74,0.00,,---,0.00,VWS V14.01,2013-02-06 08:14:00,
2013-02-06 01:19:00,46.3,38.8,29.90,NNE,22,2.0,4.0,75,0.00,,---,0.00,VWS V14.01,2013-02-06 08:19:00,
2013-02-06 01:24:00,46.1,39.0,29.90,NNE,29,1.0,4.0,76,0.00,,---,0.00,VWS V14.01,2013-02-06 08:24:00,
2013-02-06 01:29:00,46.0,38.9,29.90,NNE,21,2.0,4.0,76,0.00,,---,0.00,VWS V14.01,2013-02-06 08:29:00,
2013-02-06 01:34:00,46.3,38.8,29.90,NNE,12,2.0,2.0,75,0.00,,---,0.00,VWS V14.01,2013-02-06 08:34:00,
2013-02-06 01:40:00,46.4,38.9,29.90,NNE,25,2.0,3.0,75,0.00,,---,0.00,VWS V14.01,2013-02-06 08:40:00,
2013-02-06 01:45:00,46.7,38.9,29.90,NNE,25,1.0,3.0,74,0.00,,---,0.00,VWS V14.01,2013-02-06 08:45:00,
2013-02-06 01:50:00,47.0,39.2,29.91,NNE,32,0.0,3.0,74,0.00,,---,0.00,VWS V14.01,2013-02-06 08:50:00,
2013-02-06 01:55:00,46.9,39.1,29.91,NE,40,1.0,3.0,74,0.00,,---,0.00,VWS V14.01,2013-02-06 08:55:00,
2013-02-06 02:00:00,46.9,39.1,29.91,NE,40,0.0,3.0,74,0.00,,---,0.00,VWS V14.01,2013-02-06 09:00:00,
2013-02-06 02:05:00,46.9,39.1,29.91,NE,40,1.0,2.0,74,0.00,,---,0.00,VWS V14.01,2013-02-06 09:05:00,
2013-02-06 02:10:00,46.8,39.0,29.90,NE,47,2.0,2.0,74,0.00,,---,0.00,VWS V14.01,2013-02-06 09:10:00,
2013-02-06 02:15:00,46.4,38.6,29.90,NE,56,2.0,3.0,74,0.00,,---,0.00,VWS V14.01,2013-02-06 09:15:00,
2013-02-06 02:20:00,46.1,38.6,29.90,NE,49,2.0,3.0,75,0.00,,---,0.00,VWS V14.01,2013-02-06 09:20:00,
2013-02-06 02:25:00,45.7,38.6,29.90,NE,47,2.0,3.0,76,0.00,,---,0.00,VWS V14.01,2013-02-06 09:25:00,
2013-02-06 02:30:00,45.2,38.4,29.90,NE,49,2.0,4.0,77,0.00,,---,0.00,VWS V14.01,2013-02-06 09:30:00,
2013-02-06 02:35:00,45.0,38.6,29.90,NE,44,2.0,4.0,78,0.00,,---,0.00,VWS V14.01,2013-02-06 09:35:00,
2013-02-06 02:41:00,44.8,38.4,29.90,NE,37,2.0,4.0,78,0.00,,---,0.00,VWS V14.01,2013-02-06 09:41:00,
2013-02-06 02:46:00,44.7,38.3,29.90,NE,47,2.0,4.0,78,0.00,,---,0.00,VWS V14.01,2013-02-06 09:46:00,
2013-02-06 02:51:00,44.4,38.3,29.90,NE,48,2.0,4.0,79,0.00,,---,0.00,VWS V14.01,2013-02-06 09:51:00,
2013-02-06 02:56:00,44.4,38.3,29.90,NE,40,2.0,5.0,79,0.00,,---,0.00,VWS V14.01,2013-02-06 09:56:00,
2013-02-06 03:01:00,44.3,38.2,29.90,NE,51,3.0,5.0,79,0.00,,---,0.00,VWS V14.01,2013-02-06 10:01:00,
2013-02-06 03:06:00,44.4,38.3,29.90,NNE,16,5.0,5.0,79,0.00,,---,0.00,VWS V14.01,2013-02-06 10:06:00,
2013-02-06 03:11:00,44.8,38.7,29.90,NE,40,3.0,5.0,79,0.00,,---,0.00,VWS V14.01,2013-02-06 10:11:00,
2013-02-06 03:16:00,45.6,39.2,29.90,NNE,18,4.0,5.0,78,0.00,,---,0.00,VWS V14.01,2013-02-06 10:16:00,
2013-02-06 03:21:00,46.2,39.4,29.90,NNE,30,3.0,5.0,77,0.00,,---,0.00,VWS V14.01,2013-02-06 10:21:00,
2013-02-06 03:26:00,46.7,39.5,29.90,NNE,32,2.0,5.0,76,0.00,,---,0.00,VWS V14.01,2013-02-06 10:26:00,
2013-02-06 03:31:00,47.0,39.5,29.90,NNE,30,2.0,5.0,75,0.00,,---,0.00,VWS V14.01,2013-02-06 10:31:00,
2013-02-06 03:36:00,47.3,39.5,29.90,NNE,25,2.0,3.0,74,0.00,,---,0.00,VWS V14.01,2013-02-06 10:36:00,
2013-02-06 03:42:00,47.3,39.5,29.90,NNE,14,2.0,3.0,74,0.00,,---,0.00,VWS V14.01,2013-02-06 10:42:00,
2013-02-06 03:47:00,47.4,39.5,29.90,NNE,23,2.0,3.0,74,0.00,,---,0.00,VWS V14.01,2013-02-06 10:47:00,
2013-02-06 03:52:00,47.5,39.3,29.89,NNE,29,2.0,5.0,73,0.00,,---,0.00,VWS V14.01,2013-02-06 10:52:00,
2013-02-06 03:57:00,47.5,39.3,29.90,NNE,27,0.0,5.0,73,0.00,,---,0.00,VWS V14.01,2013-02-06 10:57:00,
2013-02-06 04:02:00,47.4,39.5,29.90,NNE,32,2.0,5.0,74,0.00,,---,0.00,VWS V14.01,2013-02-06 11:02:00,
2013-02-06 04:07:00,47.3,39.5,29.90,NNE,18,0.0,3.0,74,0.00,,---,0.00,VWS V14.01,2013-02-06 11:07:00,
2013-02-06 04:12:00,47.1,39.2,29.90,NNE,25,0.0,3.0,74,0.00,,---,0.00,VWS V14.01,2013-02-06 11:12:00,
2013-02-06 04:17:00,46.6,38.8,29.90,NE,53,0.0,3.0,74,0.00,,---,0.00,VWS V14.01,2013-02-06 11:17:00,
2013-02-06 04:22:00,45.8,38.3,29.90,NE,53,0.0,3.0,75,0.00,,---,0.00,VWS V14.01,2013-02-06 11:22:00,
2013-02-06 04:27:00,45.0,38.2,29.90,NE,51,0.0,3.0,77,0.00,,---,0.00,VWS V14.01,2013-02-06 11:27:00,
2013-02-06 04:32:00,44.4,38.0,29.90,NE,49,1.0,3.0,78,0.00,,---,0.00,VWS V14.01,2013-02-06 11:32:00,
2013-02-06 04:38:00,44.0,37.9,29.90,NE,49,0.0,1.0,79,0.00,,---,0.00,VWS V14.01,2013-02-06 11:38:00,
2013-02-06 04:43:00,43.8,38.0,29.90,NNE,18,2.0,2.0,80,0.00,,---,0.00,VWS V14.01,2013-02-06 11:43:00,
2013-02-06 04:48:00,43.6,38.2,29.90,NE,34,1.0,2.0,81,0.00,,---,0.00,VWS V14.01,2013-02-06 11:48:00,
2013-02-06 04:53:00,43.4,38.0,29.90,NNE,25,0.0,3.0,81,0.00,,---,0.00,VWS V14.01,2013-02-06 11:53:00,
2013-02-06 04:58:00,43.1,37.7,29.90,North,9,0.0,3.0,81,0.00,,---,0.00,VWS V14.01,2013-02-06 11:58:00,
2013-02-06 05:03:00,43.2,38.1,29.90,NNE,22,2.0,2.0,82,0.00,,---,0.00,VWS V14.01,2013-02-06 12:03:00,
2013-02-06 05:08:00,43.3,37.9,29.90,NNW,338,0.0,3.0,81,0.00,,---,0.00,VWS V14.01,2013-02-06 12:08:00,
2013-02-06 05:13:00,43.4,38.3,29.90,NNE,16,1.0,3.0,82,0.00,,---,0.00,VWS V14.01,2013-02-06 12:13:00,
2013-02-06 05:18:00,43.7,38.6,29.90,NNE,25,1.0,3.0,82,0.00,,---,0.00,VWS V14.01,2013-02-06 12:18:00,
2013-02-06 05:23:00,44.0,38.5,29.90,NNE,25,0.0,3.0,81,0.00,,---,0.00,VWS V14.01,2013-02-06 12:23:00,
2013-02-06 05:28:00,44.4,38.9,29.90,NNE,25,2.0,3.0,81,0.00,,---,0.00,VWS V14.01,2013-02-06 12:28:00,
2013-02-06 05:33:00,44.9,39.1,29.90,NNE,27,0.0,1.0,80,0.00,,---,0.00,VWS V14.01,2013-02-06 12:33:00,
2013-02-06 05:38:00,44.9,39.1,29.90,NNE,25,1.0,2.0,80,0.00,,---,0.00,VWS V14.01,2013-02-06 12:38:00,
2013-02-06 05:44:00,45.0,39.2,29.90,NE,51,1.0,2.0,80,0.00,,---,0.00,VWS V14.01,2013-02-06 12:44:00,
2013-02-06 05:49:00,45.1,39.3,29.90,NE,51,1.0,2.0,80,0.00,,---,0.00,VWS V14.01,2013-02-06 12:49:00,
2013-02-06 05:54:00,45.1,39.3,29.90,NE,47,1.0,2.0,80,0.00,,---,0.00,VWS V14.01,2013-02-06 12:54:00,
2013-02-06 05:59:00,45.4,39.3,29.90,NNE,29,0.0,2.0,79,0.00,,---,0.00,VWS V14.01,2013-02-06 12:59:00,
2013-02-06 06:04:00,45.4,39.3,29.90,NNE,29,0.0,0.0,79,0.00,,---,0.00,VWS V14.01,2013-02-06 13:04:00,
2013-02-06 06:09:00,45.1,39.0,29.90,NNE,29,0.0,0.0,79,0.00,,---,0.00,VWS V14.01,2013-02-06 13:09:00,
2013-02-06 06:14:00,45.1,39.3,29.90,NNE,30,3.0,3.0,80,0.00,,---,0.00,VWS V14.01,2013-02-06 13:14:00,
2013-02-06 06:19:00,45.2,39.4,29.90,NE,37,2.0,3.0,80,0.00,,---,0.00,VWS V14.01,2013-02-06 13:19:00,
2013-02-06 06:24:00,45.3,39.2,29.90,NNE,19,2.0,3.0,79,0.00,,---,0.00,VWS V14.01,2013-02-06 13:24:00,
2013-02-06 06:29:00,45.3,39.2,29.90,NNE,14,0.0,3.0,79,0.00,,---,0.00,VWS V14.01,2013-02-06 13:29:00,
2013-02-06 06:34:00,45.0,38.9,29.90,North,356,0.0,0.0,79,0.00,,---,0.00,VWS V14.01,2013-02-06 13:34:00,
2013-02-06 06:39:00,45.1,39.3,29.90,NNE,26,0.0,0.0,80,0.00,,---,0.00,VWS V14.01,2013-02-06 13:39:00,
2013-02-06 06:44:00,45.2,39.4,29.91,NNE,31,0.0,0.0,80,0.00,,---,0.00,VWS V14.01,2013-02-06 13:44:00,
2013-02-06 06:50:00,45.3,39.5,29.91,NNE,29,1.0,2.0,80,0.00,,---,0.00,VWS V14.01,2013-02-06 13:50:00,
2013-02-06 06:55:00,45.5,39.4,29.91,NE,47,0.0,2.0,79,0.00,,---,0.00,VWS V14.01,2013-02-06 13:55:00,
2013-02-06 07:00:00,45.5,39.4,29.91,NE,47,2.0,2.0,79,0.00,,---,0.00,VWS V14.01,2013-02-06 14:00:00,
2013-02-06 07:05:00,45.5,39.4,29.91,NE,53,0.0,0.0,79,0.00,,---,0.00,VWS V14.01,2013-02-06 14:05:00,
2013-02-06 07:10:00,45.4,39.3,29.91,NE,53,0.0,0.0,79,0.00,,---,0.00,VWS V14.01,2013-02-06 14:10:00,
2013-02-06 07:15:00,45.2,39.1,29.91,NE,54,0.0,0.0,79,0.00,,---,0.00,VWS V14.01,2013-02-06 14:15:00,
2013-02-06 07:20:00,45.2,39.1,29.91,NE,47,2.0,2.0,79,0.00,,---,0.00,VWS V14.01,2013-02-06 14:20:00,
2013-02-06 07:25:00,45.2,39.1,29.91,NNE,25,1.0,3.0,79,0.00,,---,0.00,VWS V14.01,2013-02-06 14:25:00,
2013-02-06 07:30:00,45.1,39.0,29.91,NNE,20,0.0,3.0,79,0.00,,---,0.00,VWS V14.01,2013-02-06 14:30:00,
2013-02-06 07:35:00,45.3,39.5,29.92,NNE,22,1.0,3.0,80,0.00,,---,0.00,VWS V14.01,2013-02-06 14:35:00,
2013-02-06 07:40:00,45.6,39.5,29.92,NE,34,0.0,3.0,79,0.00,,---,0.00,VWS V14.01,2013-02-06 14:40:00,
2013-02-06 07:45:00,46.1,39.6,29.92,NNE,25,2.0,3.0,78,0.00,,---,0.00,VWS V14.01,2013-02-06 14:45:00,
2013-02-06 07:50:00,46.5,40.0,29.92,NNE,20,1.0,3.0,78,0.00,,---,0.00,VWS V14.01,2013-02-06 14:50:00,
2013-02-06 07:55:00,46.6,39.8,29.92,NNE,20,0.0,3.0,77,0.00,,---,0.00,VWS V14.01,2013-02-06 14:55:00,
2013-02-06 08:00:00,46.8,40.0,29.92,NNE,22,0.0,3.0,77,0.00,,---,0.00,VWS V14.01,2013-02-06 15:00:00,
2013-02-06 08:05:00,47.3,40.5,29.92,NNE,20,0.0,0.0,77,0.00,,---,0.00,VWS V14.01,2013-02-06 15:05:00,
2013-02-06 08:10:00,48.0,40.8,29.93,NNE,21,0.0,0.0,76,0.00,,---,0.00,VWS V14.01,2013-02-06 15:10:00,
2013-02-06 08:15:00,48.6,40.7,29.93,NNE,22,0.0,0.0,74,0.00,,---,0.00,VWS V14.01,2013-02-06 15:15:00,
2013-02-06 08:20:00,49.1,41.2,29.93,NNE,21,0.0,0.0,74,0.00,,---,0.00,VWS V14.01,2013-02-06 15:20:00,
2013-02-06 08:25:00,49.6,41.3,29.93,NNE,22,0.0,0.0,73,0.00,,---,0.00,VWS V14.01,2013-02-06 15:25:00,
2013-02-06 08:30:00,50.0,41.7,29.93,NNE,18,0.0,0.0,73,0.00,,---,0.00,VWS V14.01,2013-02-06 15:30:00,
2013-02-06 08:35:00,50.2,41.9,29.93,NE,44,0.0,0.0,73,0.00,,---,0.00,VWS V14.01,2013-02-06 15:35:00,
2013-02-06 08:40:00,50.5,42.2,29.93,NE,44,0.0,0.0,73,0.00,,---,0.00,VWS V14.01,2013-02-06 15:40:00,
2013-02-06 08:45:00,50.8,42.5,29.93,NE,44,0.0,0.0,73,0.00,,---,0.00,VWS V14.01,2013-02-06 15:45:00,
2013-02-06 08:50:00,51.1,42.0,29.93,NE,44,0.0,0.0,71,0.00,,---,0.00,VWS V14.01,2013-02-06 15:50:00,
2013-02-06 08:56:00,51.4,42.3,29.93,NE,44,0.0,0.0,71,0.00,,---,0.00,VWS V14.01,2013-02-06 15:56:00,
2013-02-06 09:01:00,51.6,42.5,29.93,NE,44,0.0,0.0,71,0.00,,---,0.00,VWS V14.01,2013-02-06 16:01:00,
2013-02-06 09:06:00,52.1,43.0,29.93,NE,46,0.0,0.0,71,0.00,,---,0.00,VWS V14.01,2013-02-06 16:06:00,
2013-02-06 09:11:00,53.4,43.1,29.93,NE,46,0.0,0.0,68,0.00,,---,0.00,VWS V14.01,2013-02-06 16:11:00,
2013-02-06 09:16:00,54.7,43.2,29.93,NE,46,0.0,0.0,65,0.00,,---,0.00,VWS V14.01,2013-02-06 16:16:00,
2013-02-06 09:21:00,55.9,43.9,29.93,NE,45,0.0,0.0,64,0.00,,---,0.00,VWS V14.01,2013-02-06 16:21:00,
2013-02-06 09:26:00,56.7,43.0,29.93,NE,46,0.0,0.0,60,0.00,,---,0.00,VWS V14.01,2013-02-06 16:26:00,
2013-02-06 09:31:00,57.5,43.7,29.93,NE,49,0.0,0.0,60,0.00,,---,0.00,VWS V14.01,2013-02-06 16:31:00,
2013-02-06 09:36:00,57.4,42.3,29.93,NE,50,0.0,0.0,57,0.00,,---,0.00,VWS V14.01,2013-02-06 16:36:00,
2013-02-06 09:41:00,57.4,42.3,29.93,NE,40,0.0,1.0,57,0.00,,---,0.00,VWS V14.01,2013-02-06 16:41:00,
2013-02-06 09:46:00,58.0,43.3,29.93,NE,39,0.0,1.0,58,0.00,,---,0.00,VWS V14.01,2013-02-06 16:46:00,
2013-02-06 09:51:00,58.7,43.1,29.93,NE,39,0.0,1.0,56,0.00,,---,0.00,VWS V14.01,2013-02-06 16:51:00,
2013-02-06 09:56:00,58.5,42.9,29.93,NE,47,0.0,1.0,56,0.00,,---,0.00,VWS V14.01,2013-02-06 16:56:00,
2013-02-06 10:01:00,58.4,43.2,29.93,NE,46,0.0,1.0,57,0.00,,---,0.00,VWS V14.01,2013-02-06 17:01:00,
2013-02-06 10:06:00,59.1,43.0,29.93,NE,47,0.0,0.0,55,0.00,,---,0.00,VWS V14.01,2013-02-06 17:06:00,
2013-02-06 10:11:00,59.6,43.0,29.93,East,82,0.0,0.0,54,0.00,,---,0.00,VWS V14.01,2013-02-06 17:11:00,
2013-02-06 10:16:00,59.9,42.7,29.93,SW,221,0.0,0.0,53,0.00,,---,0.00,VWS V14.01,2013-02-06 17:16:00,
2013-02-06 10:21:00,59.6,42.5,29.93,SW,225,1.0,3.0,53,0.00,,---,0.00,VWS V14.01,2013-02-06 17:21:00,
2013-02-06 10:26:00,59.6,42.0,29.93,WSW,243,0.0,3.0,52,0.00,,---,0.00,VWS V14.01,2013-02-06 17:26:00,
2013-02-06 10:31:00,59.7,42.1,29.94,SW,229,0.0,3.0,52,0.00,,---,0.00,VWS V14.01,2013-02-06 17:31:00,
2013-02-06 10:37:00,59.8,42.2,29.94,SW,219,0.0,6.0,52,0.00,,---,0.00,VWS V14.01,2013-02-06 17:37:00,
2013-02-06 10:42:00,60.4,41.7,29.94,SW,233,5.0,6.0,50,0.00,,---,0.00,VWS V14.01,2013-02-06 17:42:00,
2013-02-06 10:47:00,60.9,41.6,29.93,WSW,250,3.0,6.0,49,0.00,,---,0.00,VWS V14.01,2013-02-06 17:47:00,
2013-02-06 10:52:00,61.5,42.2,29.94,South,186,3.0,7.0,49,0.00,,---,0.00,VWS V14.01,2013-02-06 17:52:00,
2013-02-06 10:57:00,62.5,42.6,29.93,SW,222,6.0,7.0,48,0.00,,---,0.00,VWS V14.01,2013-02-06 17:57:00,
2013-02-06 11:02:00,63.3,42.2,29.93,WSW,242,5.0,10.0,46,0.00,,---,0.00,VWS V14.01,2013-02-06 18:02:00,
2013-02-06 11:07:00,64.2,41.8,29.93,SSW,212,6.0,9.0,44,0.00,,---,0.00,VWS V14.01,2013-02-06 18:07:00,
2013-02-06 11:12:00,64.4,41.4,29.93,South,187,7.0,11.0,43,0.00,,---,0.00,VWS V14.01,2013-02-06 18:12:00,
2013-02-06 11:17:00,64.4,42.0,29.93,SSE,153,5.0,11.0,44,0.00,,---,0.00,VWS V14.01,2013-02-06 18:17:00,
2013-02-06 11:22:00,64.6,41.6,29.93,SSE,155,5.0,11.0,43,0.00,,---,0.00,VWS V14.01,2013-02-06 18:22:00,
2013-02-06 11:27:00,64.7,41.1,29.92,WSW,242,3.0,11.0,42,0.00,,---,0.00,VWS V14.01,2013-02-06 18:27:00,
2013-02-06 11:32:00,64.7,41.1,29.92,SSW,209,5.0,11.0,42,0.00,,---,0.00,VWS V14.01,2013-02-06 18:32:00,
2013-02-06 11:37:00,64.8,41.2,29.92,SW,221,3.0,10.0,42,0.00,,---,0.00,VWS V14.01,2013-02-06 18:37:00,
2013-02-06 11:42:00,65.1,41.5,29.92,SW,228,6.0,10.0,42,0.00,,---,0.00,VWS V14.01,2013-02-06 18:42:00,
2013-02-06 11:47:00,66.0,41.0,29.92,ESE,120,2.0,10.0,40,0.00,,---,0.00,VWS V14.01,2013-02-06 18:47:00,
2013-02-06 11:52:00,66.5,41.5,29.92,SE,127,3.0,10.0,40,0.00,,---,0.00,VWS V14.01,2013-02-06 18:52:00,
2013-02-06 11:57:00,66.5,40.8,29.92,East,91,3.0,10.0,39,0.00,,---,0.00,VWS V14.01,2013-02-06 18:57:00,
2013-02-06 12:03:00,66.4,40.7,29.92,SE,134,3.0,10.0,39,0.00,,---,0.00,VWS V14.01,2013-02-06 19:03:00,
2013-02-06 12:08:00,66.4,40.7,29.92,SSW,197,0.0,11.0,39,0.00,,---,0.00,VWS V14.01,2013-02-06 19:08:00,
2013-02-06 12:13:00,66.4,40.7,29.91,SW,231,7.0,11.0,39,0.00,,---,0.00,VWS V14.01,2013-02-06 19:13:00,
2013-02-06 12:18:00,65.5,40.6,29.91,SW,225,5.0,11.0,40,0.00,,---,0.00,VWS V14.01,2013-02-06 19:18:00,
2013-02-06 12:23:00,65.2,39.6,29.91,SW,217,6.0,11.0,39,0.00,,---,0.00,VWS V14.01,2013-02-06 19:23:00,
2013-02-06 12:28:00,64.8,39.9,29.91,South,184,3.0,11.0,40,0.00,,---,0.00,VWS V14.01,2013-02-06 19:28:00,
2013-02-06 12:33:00,64.4,40.2,29.91,WSW,248,3.0,5.0,41,0.00,,---,0.00,VWS V14.01,2013-02-06 19:33:00,
2013-02-06 12:38:00,64.7,39.8,29.91,SSW,204,2.0,12.0,40,0.00,,---,0.00,VWS V14.01,2013-02-06 19:38:00,
2013-02-06 12:43:00,65.1,40.8,29.90,SW,233,1.0,12.0,41,0.00,,---,0.00,VWS V14.01,2013-02-06 19:43:00,
2013-02-06 12:48:00,65.5,40.6,29.90,SW,226,8.0,12.0,40,0.00,,---,0.00,VWS V14.01,2013-02-06 19:48:00,
2013-02-06 12:53:00,66.3,40.0,29.90,SW,219,6.0,12.0,38,0.00,,---,0.00,VWS V14.01,2013-02-06 19:53:00,
2013-02-06 12:58:00,65.3,39.7,29.90,SSW,212,2.0,12.0,39,0.00,,---,0.00,VWS V14.01,2013-02-06 19:58:00,
2013-02-06 13:03:00,65.1,39.5,29.89,West,259,3.0,4.0,39,0.00,,---,0.00,VWS V14.01,2013-02-06 20:03:00,
2013-02-06 13:09:00,66.4,40.0,29.90,ESE,116,4.0,8.0,38,0.00,,---,0.00,VWS V14.01,2013-02-06 20:09:00,
2013-02-06 13:14:00,67.5,40.3,29.89,SE,131,4.0,8.0,37,0.00,,---,0.00,VWS V14.01,2013-02-06 20:14:00,
2013-02-06 13:19:00,67.5,39.6,29.89,South,190,2.0,10.0,36,0.00,,---,0.00,VWS V14.01,2013-02-06 20:19:00,
2013-02-06 13:24:00,67.0,39.2,29.89,South,176,2.0,10.0,36,0.00,,---,0.00,VWS V14.01,2013-02-06 20:24:00,
2013-02-06 13:29:00,66.6,39.5,29.89,WSW,248,3.0,10.0,37,0.00,,---,0.00,VWS V14.01,2013-02-06 20:29:00,
2013-02-06 13:34:00,66.2,39.2,29.89,West,271,0.0,1.0,37,0.00,,---,0.00,VWS V14.01,2013-02-06 20:34:00,
2013-02-06 13:39:00,66.6,39.5,29.89,WSW,248,2.0,7.0,37,0.00,,---,0.00,VWS V14.01,2013-02-06 20:39:00,
2013-02-06 13:44:00,66.4,40.0,29.88,SW,221,3.0,7.0,38,0.00,,---,0.00,VWS V14.01,2013-02-06 20:44:00,
2013-02-06 13:49:00,67.1,40.7,29.88,WSW,257,2.0,7.0,38,0.00,,---,0.00,VWS V14.01,2013-02-06 20:49:00,
2013-02-06 13:54:00,67.2,40.1,29.88,West,264,3.0,9.0,37,0.00,,---,0.00,VWS V14.01,2013-02-06 20:54:00,
2013-02-06 13:59:00,67.5,39.6,29.88,ESE,122,2.0,10.0,36,0.00,,---,0.00,VWS V14.01,2013-02-06 20:59:00,
2013-02-06 14:04:00,67.9,38.5,29.88,SW,224,1.0,1.0,34,0.00,,---,0.00,VWS V14.01,2013-02-06 21:04:00,
2013-02-06 14:09:00,68.3,38.9,29.88,SW,233,5.0,10.0,34,0.00,,---,0.00,VWS V14.01,2013-02-06 21:09:00,
2013-02-06 14:14:00,67.9,37.8,29.88,South,173,5.0,12.0,33,0.00,,---,0.00,VWS V14.01,2013-02-06 21:14:00,
2013-02-06 14:19:00,67.8,38.4,29.88,WSW,238,7.0,12.0,34,0.00,,---,0.00,VWS V14.01,2013-02-06 21:19:00,
2013-02-06 14:25:00,67.7,38.3,29.88,SW,231,7.0,13.0,34,0.00,,---,0.00,VWS V14.01,2013-02-06 21:25:00,
2013-02-06 14:30:00,67.7,38.3,29.88,SW,228,5.0,13.0,34,0.00,,---,0.00,VWS V14.01,2013-02-06 21:30:00,
2013-02-06 14:35:00,67.5,38.9,29.88,WSW,243,9.0,12.0,35,0.00,,---,0.00,VWS V14.01,2013-02-06 21:35:00,
2013-02-06 14:40:00,67.8,39.2,29.88,WSW,246,6.0,12.0,35,0.00,,---,0.00,VWS V14.01,2013-02-06 21:40:00,
2013-02-06 14:45:00,68.3,38.1,29.88,West,274,3.0,12.0,33,0.00,,---,0.00,VWS V14.01,2013-02-06 21:45:00,
2013-02-06 14:50:00,67.8,36.9,29.89,SW,217,4.0,15.0,32,0.00,,---,0.00,VWS V14.01,2013-02-06 21:50:00,
2013-02-06 14:55:00,67.8,36.9,29.89,WSW,245,5.0,15.0,32,0.00,,---,0.00,VWS V14.01,2013-02-06 21:55:00,
2013-02-06 15:00:00,67.9,36.2,29.88,West,263,2.0,15.0,31,0.00,,---,0.00,VWS V14.01,2013-02-06 22:00:00,
2013-02-06 15:05:00,68.2,33.9,29.89,West,279,7.0,11.0,28,0.00,,---,0.00,VWS V14.01,2013-02-06 22:05:00,
2013-02-06 15:10:00,68.0,33.7,29.89,WSW,253,7.0,15.0,28,0.00,,---,0.00,VWS V14.01,2013-02-06 22:10:00,
2013-02-06 15:15:00,67.9,35.3,29.89,SW,233,8.0,15.0,30,0.00,,---,0.00,VWS V14.01,2013-02-06 22:15:00,
2013-02-06 15:20:00,67.8,35.3,29.89,WSW,242,4.0,15.0,30,0.00,,---,0.00,VWS V14.01,2013-02-06 22:20:00,
2013-02-06 15:25:00,67.7,36.0,29.89,SW,233,8.0,15.0,31,0.00,,---,0.00,VWS V14.01,2013-02-06 22:25:00,
2013-02-06 15:30:00,68.0,37.8,29.89,WSW,253,5.0,15.0,33,0.00,,---,0.00,VWS V14.01,2013-02-06 22:30:00,
2013-02-06 15:35:00,68.2,39.5,29.89,WSW,256,1.0,7.0,35,0.00,,---,0.00,VWS V14.01,2013-02-06 22:35:00,
2013-02-06 15:40:00,67.9,38.5,29.89,WSW,249,8.0,13.0,34,0.00,,---,0.00,VWS V14.01,2013-02-06 22:40:00,
2013-02-06 15:46:00,67.5,39.6,29.89,West,271,2.0,13.0,36,0.00,,---,0.00,VWS V14.01,2013-02-06 22:46:00,
2013-02-06 15:51:00,67.1,37.8,29.89,WSW,256,6.0,13.0,34,0.00,,---,0.00,VWS V14.01,2013-02-06 22:51:00,
2013-02-06 15:56:00,66.7,38.2,29.89,WSW,239,3.0,13.0,35,0.00,,---,0.00,VWS V14.01,2013-02-06 22:56:00,
2013-02-06 16:01:00,67.1,38.6,29.89,WSW,257,8.0,13.0,35,0.00,,---,0.00,VWS V14.01,2013-02-06 23:01:00,
2013-02-06 16:06:00,67.2,39.4,29.89,West,276,4.0,12.0,36,0.00,,---,0.00,VWS V14.01,2013-02-06 23:06:00,
2013-02-06 16:11:00,67.4,38.8,29.89,SSW,198,2.0,12.0,35,0.00,,---,0.00,VWS V14.01,2013-02-06 23:11:00,
2013-02-06 16:16:00,67.1,39.3,29.89,West,274,3.0,12.0,36,0.00,,---,0.00,VWS V14.01,2013-02-06 23:16:00,
2013-02-06 16:21:00,67.3,39.5,29.89,WNW,287,0.0,12.0,36,0.00,,---,0.00,VWS V14.01,2013-02-06 23:21:00,
2013-02-06 16:26:00,67.6,39.0,29.89,West,280,4.0,12.0,35,0.00,,---,0.00,VWS V14.01,2013-02-06 23:26:00,
2013-02-06 16:31:00,67.3,37.2,29.90,WSW,243,3.0,12.0,33,0.00,,---,0.00,VWS V14.01,2013-02-06 23:31:00,
2013-02-06 16:36:00,67.3,38.0,29.90,West,263,4.0,6.0,34,0.00,,---,0.00,VWS V14.01,2013-02-06 23:36:00,
2013-02-06 16:41:00,67.2,37.9,29.90,West,280,8.0,11.0,34,0.00,,---,0.00,VWS V14.01,2013-02-06 23:41:00,
2013-02-06 16:46:00,66.8,38.3,29.90,WSW,256,1.0,11.0,35,0.00,,---,0.00,VWS V14.01,2013-02-06 23:46:00,
2013-02-06 16:51:00,66.3,37.1,29.90,West,272,3.0,11.0,34,0.00,,---,0.00,VWS V14.01,2013-02-06 23:51:00,
2013-02-06 16:56:00,66.0,36.8,29.90,West,267,3.0,11.0,34,0.00,,---,0.00,VWS V14.01,2013-02-06 23:56:00,
2013-02-06 17:01:00,66.4,37.2,29.90,WSW,239,7.0,11.0,34,0.00,,---,0.00,VWS V14.01,2013-02-07 00:01:00,
2013-02-06 17:07:00,66.2,37.0,29.90,West,276,1.0,5.0,34,0.00,,---,0.00,VWS V14.01,2013-02-07 00:07:00,
2013-02-06 17:12:00,66.3,37.1,29.90,WSW,250,3.0,5.0,34,0.00,,---,0.00,VWS V14.01,2013-02-07 00:12:00,
2013-02-06 17:17:00,66.2,37.0,29.90,WNW,287,2.0,7.0,34,0.00,,---,0.00,VWS V14.01,2013-02-07 00:17:00,
2013-02-06 17:22:00,66.4,37.2,29.91,West,271,3.0,7.0,34,0.00,,---,0.00,VWS V14.01,2013-02-07 00:22:00,
2013-02-06 17:27:00,65.8,35.9,29.91,WSW,248,2.0,8.0,33,0.00,,---,0.00,VWS V14.01,2013-02-07 00:27:00,
2013-02-06 17:32:00,65.5,35.7,29.91,SW,226,8.0,9.0,33,0.00,,---,0.00,VWS V14.01,2013-02-07 00:32:00,
2013-02-06 17:37:00,65.1,36.1,29.91,West,265,4.0,9.0,34,0.00,,---,0.00,VWS V14.01,2013-02-07 00:37:00,
2013-02-06 17:42:00,64.9,36.6,29.91,WNW,293,4.0,9.0,35,0.00,,---,0.00,VWS V14.01,2013-02-07 00:42:00,
2013-02-06 17:47:00,64.6,36.3,29.91,WSW,256,1.0,9.0,35,0.00,,---,0.00,VWS V14.01,2013-02-07 00:47:00,
2013-02-06 17:52:00,64.2,36.7,29.91,West,272,2.0,9.0,36,0.00,,---,0.00,VWS V14.01,2013-02-07 00:52:00,
2013-02-06 17:57:00,63.7,37.0,29.92,NNW,327,2.0,9.0,37,0.00,,---,0.00,VWS V14.01,2013-02-07 00:57:00,
2013-02-06 18:02:00,63.1,37.1,29.92,West,266,2.0,9.0,38,0.00,,---,0.00,VWS V14.01,2013-02-07 01:02:00,
2013-02-06 18:07:00,62.5,37.2,29.92,West,276,2.0,5.0,39,0.00,,---,0.00,VWS V14.01,2013-02-07 01:07:00,
2013-02-06 18:13:00,62.0,36.8,29.92,WSW,254,0.0,5.0,39,0.00,,---,0.00,VWS V14.01,2013-02-07 01:13:00,
2013-02-06 18:18:00,61.5,37.0,29.92,West,265,0.0,5.0,40,0.00,,---,0.00,VWS V14.01,2013-02-07 01:18:00,
2013-02-06 18:23:00,61.2,37.3,29.92,West,264,2.0,5.0,41,0.00,,---,0.00,VWS V14.01,2013-02-07 01:23:00,
2013-02-06 18:28:00,60.8,37.0,29.92,West,281,2.0,5.0,41,0.00,,---,0.00,VWS V14.01,2013-02-07 01:28:00,
2013-02-06 18:33:00,60.5,37.3,29.93,West,273,0.0,5.0,42,0.00,,---,0.00,VWS V14.01,2013-02-07 01:33:00,
2013-02-06 18:38:00,60.2,37.0,29.93,West,278,0.0,2.0,42,0.00,,---,0.00,VWS V14.01,2013-02-07 01:38:00,
2013-02-06 18:43:00,59.8,37.3,29.93,West,278,0.0,2.0,43,0.00,,---,0.00,VWS V14.01,2013-02-07 01:43:00,
2013-02-06 18:48:00,59.2,37.3,29.93,West,278,0.0,2.0,44,0.00,,---,0.00,VWS V14.01,2013-02-07 01:48:00,
2013-02-06 18:53:00,58.6,37.3,29.94,West,278,0.0,2.0,45,0.00,,---,0.00,VWS V14.01,2013-02-07 01:53:00,
2013-02-06 18:58:00,58.2,37.5,29.94,West,278,0.0,2.0,46,0.00,,---,0.00,VWS V14.01,2013-02-07 01:58:00,
2013-02-06 19:03:00,58.0,37.4,29.94,WNW,295,0.0,2.0,46,0.00,,---,0.00,VWS V14.01,2013-02-07 02:03:00,
2013-02-06 19:08:00,58.0,37.4,29.94,West,264,0.0,1.0,46,0.00,,---,0.00,VWS V14.01,2013-02-07 02:08:00,
2013-02-06 19:13:00,57.9,37.3,29.94,West,264,0.0,1.0,46,0.00,,---,0.00,VWS V14.01,2013-02-07 02:13:00,
2013-02-06 19:18:00,57.6,37.0,29.95,West,264,0.0,1.0,46,0.00,,---,0.00,VWS V14.01,2013-02-07 02:18:00,
2013-02-06 19:23:00,57.3,37.3,29.95,West,264,0.0,1.0,47,0.00,,---,0.00,VWS V14.01,2013-02-07 02:23:00,
2013-02-06 19:28:00,57.1,37.6,29.95,NE,39,1.0,1.0,48,0.00,,---,0.00,VWS V14.01,2013-02-07 02:28:00,
2013-02-06 19:33:00,57.0,37.5,29.95,NE,44,1.0,2.0,48,0.00,,---,0.00,VWS V14.01,2013-02-07 02:33:00,
2013-02-06 19:38:00,56.8,37.3,29.95,NE,47,2.0,3.0,48,0.00,,---,0.00,VWS V14.01,2013-02-07 02:38:00,
2013-02-06 19:43:00,56.5,37.6,29.95,NNE,18,0.0,3.0,49,0.00,,---,0.00,VWS V14.01,2013-02-07 02:43:00,
2013-02-06 19:48:00,56.1,37.7,29.95,NNE,29,2.0,3.0,50,0.00,,---,0.00,VWS V14.01,2013-02-07 02:48:00,
2013-02-06 19:54:00,55.7,37.4,29.95,NNE,32,0.0,3.0,50,0.00,,---,0.00,VWS V14.01,2013-02-07 02:54:00,
2013-02-06 19:59:00,55.2,37.9,29.96,NNE,33,1.0,3.0,52,0.00,,---,0.00,VWS V14.01,2013-02-07 02:59:00,
2013-02-06 20:04:00,54.8,38.0,29.96,NE,34,3.0,4.0,53,0.00,,---,0.00,VWS V14.01,2013-02-07 03:04:00,
2013-02-06 20:09:00,54.4,38.1,29.96,NNE,25,3.0,4.0,54,0.00,,---,0.00,VWS V14.01,2013-02-07 03:09:00,
2013-02-06 20:14:00,54.1,37.8,29.96,NE,47,2.0,4.0,54,0.00,,---,0.00,VWS V14.01,2013-02-07 03:14:00,
2013-02-06 20:19:00,54.0,37.8,29.96,NNE,27,1.0,5.0,54,0.00,,---,0.00,VWS V14.01,2013-02-07 03:19:00,
2013-02-06 20:24:00,53.8,38.0,29.97,NNE,29,3.0,5.0,55,0.00,,---,0.00,VWS V14.01,2013-02-07 03:24:00,
2013-02-06 20:29:00,53.7,37.9,29.97,NNE,32,2.0,5.0,55,0.00,,---,0.00,VWS V14.01,2013-02-07 03:29:00,
2013-02-06 20:34:00,53.6,37.8,29.97,NNE,20,1.0,5.0,55,0.00,,---,0.00,VWS V14.01,2013-02-07 03:34:00,
2013-02-06 20:39:00,53.2,37.5,29.97,NNE,26,2.0,5.0,55,0.00,,---,0.00,VWS V14.01,2013-02-07 03:39:00,
2013-02-06 20:44:00,53.0,37.7,29.97,NNE,13,5.0,6.0,56,0.00,,---,0.00,VWS V14.01,2013-02-07 03:44:00,
2013-02-06 20:49:00,53.0,37.7,29.98,NE,37,2.0,7.0,56,0.00,,---,0.00,VWS V14.01,2013-02-07 03:49:00,
2013-02-06 20:54:00,53.0,37.7,29.98,NE,40,5.0,7.0,56,0.00,,---,0.00,VWS V14.01,2013-02-07 03:54:00,
2013-02-06 21:00:00,53.0,38.2,29.98,NNE,24,3.0,7.0,57,0.00,,---,0.00,VWS V14.01,2013-02-07 04:00:00,
2013-02-06 21:05:00,53.4,38.6,29.98,North,349,1.0,5.0,57,0.00,,---,0.00,VWS V14.01,2013-02-07 04:05:00,
2013-02-06 21:10:00,53.4,38.6,29.98,NE,40,2.0,5.0,57,0.00,,---,0.00,VWS V14.01,2013-02-07 04:10:00,
2013-02-06 21:15:00,53.2,38.8,29.98,NNE,30,3.0,5.0,58,0.00,,---,0.00,VWS V14.01,2013-02-07 04:15:00,
2013-02-06 21:20:00,53.4,39.0,29.98,NNE,12,3.0,6.0,58,0.00,,---,0.00,VWS V14.01,2013-02-07 04:20:00,
2013-02-06 21:25:00,53.4,39.0,29.98,NE,35,2.0,6.0,58,0.00,,---,0.00,VWS V14.01,2013-02-07 04:25:00,
2013-02-06 21:30:00,53.0,39.1,29.98,NNE,32,2.0,6.0,59,0.00,,---,0.00,VWS V14.01,2013-02-07 04:30:00,
2013-02-06 21:35:00,52.6,39.1,29.98,NNE,33,5.0,5.0,60,0.00,,---,0.00,VWS V14.01,2013-02-07 04:35:00,
2013-02-06 21:40:00,52.3,39.3,29.98,NNE,22,5.0,6.0,61,0.00,,---,0.00,VWS V14.01,2013-02-07 04:40:00,
2013-02-06 21:45:00,52.2,39.2,29.99,NNE,20,2.0,6.0,61,0.00,,---,0.00,VWS V14.01,2013-02-07 04:45:00,
2013-02-06 21:50:00,52.2,38.8,29.99,NE,42,2.0,6.0,60,0.00,,---,0.00,VWS V14.01,2013-02-07 04:50:00,
2013-02-06 21:55:00,52.4,38.9,29.99,NE,40,3.0,6.0,60,0.00,,---,0.00,VWS V14.01,2013-02-07 04:55:00,
2013-02-06 22:00:00,52.4,38.9,29.99,North,349,0.0,6.0,60,0.00,,---,0.00,VWS V14.01,2013-02-07 05:00:00,
2013-02-06 22:01:00,52.3,38.8,29.99,NNW,327,1.0,6.0,60,0.00,,---,0.00,VWS V14.01,2013-02-07 05:01:00,
2013-02-06 22:02:00,52.2,38.8,29.99,North,359,2.0,6.0,60,0.00,,---,0.00,VWS V14.01,2013-02-07 05:02:00,
2013-02-06 22:07:00,52.4,38.9,29.99,NNE,32,3.0,6.0,60,0.00,,---,0.00,VWS V14.01,2013-02-07 05:07:00,
2013-02-06 22:12:00,52.7,39.2,29.99,NNE,20,5.0,6.0,60,0.00,,---,0.00,VWS V14.01,2013-02-07 05:12:00,
2013-02-06 22:17:00,52.7,39.2,29.99,NNE,24,3.0,6.0,60,0.00,,---,0.00,VWS V14.01,2013-02-07 05:17:00,
2013-02-06 22:22:00,52.6,39.5,29.99,NE,37,2.0,6.0,61,0.00,,---,0.00,VWS V14.01,2013-02-07 05:22:00,
2013-02-06 22:27:00,52.5,39.5,29.99,NE,37,4.0,6.0,61,0.00,,---,0.00,VWS V14.01,2013-02-07 05:27:00,
2013-02-06 22:32:00,52.4,39.8,29.99,NE,34,4.0,6.0,62,0.00,,---,0.00,VWS V14.01,2013-02-07 05:32:00,
2013-02-06 22:37:00,52.4,39.8,29.99,NNE,16,2.0,4.0,62,0.00,,---,0.00,VWS V14.01,2013-02-07 05:37:00,
2013-02-06 22:43:00,52.4,39.8,30.00,NNE,12,2.0,4.0,62,0.00,,---,0.00,VWS V14.01,2013-02-07 05:43:00,
2013-02-06 22:48:00,52.2,39.6,30.00,NNE,32,1.0,4.0,62,0.00,,---,0.00,VWS V14.01,2013-02-07 05:48:00,
2013-02-06 22:53:00,51.4,39.2,30.00,NE,38,2.0,4.0,63,0.00,,---,0.00,VWS V14.01,2013-02-07 05:53:00,
2013-02-06 22:58:00,50.1,38.8,30.00,ENE,58,2.0,4.0,65,0.00,,---,0.00,VWS V14.01,2013-02-07 05:58:00,
2013-02-06 23:03:00,48.7,38.6,30.00,NE,49,1.0,4.0,68,0.00,,---,0.00,VWS V14.01,2013-02-07 06:03:00,
2013-02-06 23:08:00,48.1,38.8,30.00,NE,39,2.0,4.0,70,0.00,,---,0.00,VWS V14.01,2013-02-07 06:08:00,
2013-02-06 23:13:00,47.9,38.6,30.00,NNE,25,2.0,4.0,70,0.00,,---,0.00,VWS V14.01,2013-02-07 06:13:00,
2013-02-06 23:18:00,47.9,39.0,30.00,NNE,22,3.0,5.0,71,0.00,,---,0.00,VWS V14.01,2013-02-07 06:18:00,
2013-02-06 23:23:00,47.7,38.8,30.01,NNW,342,0.0,5.0,71,0.00,,---,0.00,VWS V14.01,2013-02-07 06:23:00,
2013-02-06 23:28:00,47.5,38.6,30.01,North,4,0.0,5.0,71,0.00,,---,0.00,VWS V14.01,2013-02-07 06:28:00,
2013-02-06 23:33:00,47.6,39.0,30.01,NNE,18,1.0,1.0,72,0.00,,---,0.00,VWS V14.01,2013-02-07 06:33:00,
2013-02-06 23:38:00,48.4,39.4,30.01,NNE,29,2.0,4.0,71,0.00,,---,0.00,VWS V14.01,2013-02-07 06:38:00,
2013-02-06 23:43:00,49.2,39.8,30.01,North,1,1.0,4.0,70,0.00,,---,0.00,VWS V14.01,2013-02-07 06:43:00,
2013-02-06 23:48:00,49.9,39.8,30.01,NNE,18,2.0,4.0,68,0.00,,---,0.00,VWS V14.01,2013-02-07 06:48:00,
2013-02-06 23:53:00,50.1,40.0,30.01,NE,46,2.0,4.0,68,0.00,,---,0.00,VWS V14.01,2013-02-07 06:53:00,
2013-02-06 23:58:00,49.2,39.1,30.01,NE,53,3.0,4.0,68,0.00,,---,0.00,VWS V14.01,2013-02-07 06:58:00,